Auburn, IN

3:43 AM EST on December 11, 2019 (GMT -0500)
Auburn

Weather History for KGWB - August, 2019

Change the Weather History Date:

Saturday, August 24, 2019

  Actual Average (KFWA) Record (KFWA)
Temperature  
Mean Temperature 61 °F -  
Max Temperature 71 °F 80 °F 95 °F (1962)
Min Temperature 51 °F 59 °F 44 °F (1987)
Degree Days  
Heating Degree Days 4    
Growing Degree Days 11 (Base 50)    
Moisture  
Dew Point 52 °F    
Average Humidity 75    
Maximum Humidity 94    
Minimum Humidity 53    
Precipitation  
Precipitation 0.00 in - - ()
Sea Level Pressure  
Sea Level Pressure 30.26 in    
Wind  
Wind Speed 6 mph (ENE)    
Max Wind Speed 13 mph    
Max Gust Speed 16 mph    
Visibility 10 miles    
Events      
Averages and records for this station are not official NWS values.
T = Trace of Precipitation, MM = Missing Value Source: NWS Daily Summary

Daily Weather History Graph

Daily Weather History Graph

Search for Another Location

Airport or City:

Astronomy

Aug. 24, 2019 Rise Set
Actual Time 6:58 AM EDT 8:26 PM EDT
Civil Twilight 6:29 AM EDT 8:55 PM EDT
Nautical Twilight 5:54 AM EDT 9:29 PM EDT
Astronomical Twilight 5:17 AM EDT 10:06 PM EDT
Moon 12:49 AM EDT (8/24) 3:42 PM EDT (8/24)
Length of Visible Light 14h 25m
Length of Day
13h 27m
Last Quarter, 39% of the Moon is Illuminated
Aug 24
Last Quarter
Aug 30
New
Sep 5
First Quarter
Sep 14
Full
Sep 21
Last Quarter

Hourly Weather History & Observations

Time (EDT) Temp. Dew Point Humidity Pressure Visibility Wind Dir Wind Speed Gust Speed Precip Events Conditions
12:15 AM 57.2 °F 51.8 °F 82% 30.23 in 10.0 mi NE 4.6 mph - N/A   Clear
12:35 AM 55.4 °F 51.8 °F 88% 30.24 in 10.0 mi NE 4.6 mph - N/A   Clear
12:55 AM 55.4 °F 51.8 °F 88% 30.24 in 10.0 mi NE 4.6 mph - N/A   Clear
1:15 AM 55.4 °F 51.8 °F 88% 30.25 in 10.0 mi ENE 5.8 mph - N/A   Clear
1:35 AM 55.4 °F 53.6 °F 94% 30.25 in 10.0 mi ENE 4.6 mph - N/A   Clear
1:55 AM 55.4 °F 53.6 °F 94% 30.25 in 10.0 mi ENE 5.8 mph - N/A   Clear
2:15 AM 55.4 °F 53.6 °F 94% 30.25 in 10.0 mi ENE 4.6 mph - N/A   Clear
2:35 AM 53.6 °F 51.8 °F 94% 30.25 in 10.0 mi ENE 4.6 mph - N/A   Clear
2:55 AM 53.6 °F 51.8 °F 94% 30.25 in 10.0 mi ENE 4.6 mph - N/A   Clear
3:15 AM 55.4 °F 51.8 °F 88% 30.25 in 10.0 mi ENE 3.5 mph - N/A   Clear
3:35 AM 55.4 °F 51.8 °F 88% 30.25 in 10.0 mi ENE 4.6 mph - N/A   Scattered Clouds
3:55 AM 55.4 °F 51.8 °F 88% 30.25 in 10.0 mi ENE 5.8 mph - N/A   Scattered Clouds
4:15 AM 53.6 °F 51.8 °F 94% 30.27 in 10.0 mi East 3.5 mph - N/A   Clear
4:35 AM 53.6 °F 50.0 °F 88% 30.27 in 10.0 mi ENE 3.5 mph - N/A   Clear
4:55 AM 53.6 °F 50.0 °F 88% 30.27 in 10.0 mi ENE 3.5 mph - N/A   Clear
5:15 AM 51.8 °F 50.0 °F 94% 30.28 in 10.0 mi NE 3.5 mph - N/A   Clear
5:35 AM 51.8 °F 50.0 °F 94% 30.28 in 10.0 mi NE 3.5 mph - N/A   Clear
5:55 AM 53.6 °F 50.0 °F 88% 30.29 in 10.0 mi Calm Calm - N/A   Clear
6:15 AM 51.8 °F 50.0 °F 94% 30.29 in 10.0 mi Calm Calm - N/A   Clear
6:35 AM 51.8 °F 48.2 °F 88% 30.29 in 10.0 mi Calm Calm - N/A   Clear
6:55 AM 51.8 °F 50.0 °F 94% 30.30 in 10.0 mi NE 3.5 mph - N/A   Clear
7:15 AM 51.8 °F 50.0 °F 94% 30.30 in 10.0 mi NNE 3.5 mph - N/A   Clear
7:35 AM 51.8 °F 50.0 °F 94% 30.30 in 10.0 mi NE 3.5 mph - N/A   Clear
7:55 AM 53.6 °F 51.8 °F 94% 30.30 in 10.0 mi NE 5.8 mph - N/A   Clear
8:15 AM 55.4 °F 51.8 °F 88% 30.30 in 10.0 mi NE 6.9 mph - N/A   Clear
8:35 AM 55.4 °F 51.8 °F 88% 30.30 in 10.0 mi NE 6.9 mph - N/A   Clear
8:55 AM 57.2 °F 53.6 °F 88% 30.30 in 10.0 mi NE 8.1 mph - N/A   Clear
9:15 AM 59.0 °F 53.6 °F 82% 30.30 in 10.0 mi NE 8.1 mph - N/A   Clear
9:35 AM 60.8 °F 53.6 °F 77% 30.30 in 10.0 mi NE 6.9 mph - N/A   Clear
9:55 AM 62.6 °F 55.4 °F 77% 30.30 in 10.0 mi NE 8.1 mph - N/A   Clear
10:15 AM 62.6 °F 55.4 °F 77% 30.30 in 10.0 mi ENE 8.1 mph - N/A   Clear
10:35 AM 64.4 °F 53.6 °F 68% 30.30 in 10.0 mi ENE 12.7 mph - N/A   Clear
10:55 AM 64.4 °F 53.6 °F 68% 30.30 in 10.0 mi ENE 10.4 mph - N/A   Clear
11:15 AM 66.2 °F 51.8 °F 60% 30.30 in 10.0 mi East 11.5 mph 16.1 mph N/A   Clear
11:35 AM 68.0 °F 51.8 °F 56% 30.30 in 10.0 mi East 10.4 mph - N/A   Clear
11:55 AM 68.0 °F 51.8 °F 56% 30.30 in 10.0 mi East 12.7 mph - N/A   Scattered Clouds
12:15 PM 68.0 °F 51.8 °F 56% 30.30 in 10.0 mi NE 10.4 mph 16.1 mph N/A   Scattered Clouds
12:35 PM 68.0 °F 51.8 °F 56% 30.30 in 10.0 mi ENE 8.1 mph - N/A   Clear
12:55 PM 69.8 °F 51.8 °F 53% 30.29 in 10.0 mi East 9.2 mph - N/A   Clear
1:15 PM 69.8 °F 51.8 °F 53% 30.28 in 10.0 mi East 10.4 mph 16.1 mph N/A   Clear
1:35 PM 69.8 °F 51.8 °F 53% 30.28 in 10.0 mi NE 9.2 mph - N/A   Scattered Clouds
1:55 PM 69.8 °F 53.6 °F 56% 30.28 in 10.0 mi ENE 8.1 mph - N/A   Scattered Clouds
2:15 PM 71.6 °F 53.6 °F 53% 30.28 in 10.0 mi ESE 9.2 mph - N/A   Scattered Clouds
2:35 PM 69.8 °F 53.6 °F 56% 30.27 in 10.0 mi ESE 8.1 mph - N/A   Scattered Clouds
2:55 PM 71.6 °F 53.6 °F 53% 30.27 in 10.0 mi ENE 9.2 mph - N/A   Mostly Cloudy
3:15 PM 69.8 °F 53.6 °F 56% 30.26 in 10.0 mi NE 6.9 mph - N/A   Scattered Clouds
3:35 PM 71.6 °F 53.6 °F 53% 30.26 in 10.0 mi ENE 10.4 mph - N/A   Scattered Clouds
3:55 PM 69.8 °F 53.6 °F 56% 30.25 in 10.0 mi East 9.2 mph - N/A   Scattered Clouds
4:15 PM 69.8 °F 53.6 °F 56% 30.24 in 10.0 mi ENE 6.9 mph - N/A   Scattered Clouds
4:35 PM 69.8 °F 53.6 °F 56% 30.24 in 10.0 mi East 5.8 mph - N/A   Scattered Clouds
4:55 PM 69.8 °F 55.4 °F 60% 30.23 in 10.0 mi East 6.9 mph - N/A   Scattered Clouds
5:15 PM 71.6 °F 53.6 °F 53% 30.23 in 10.0 mi East 6.9 mph 16.1 mph N/A   Scattered Clouds
5:55 PM 71.6 °F 53.6 °F 53% 30.23 in 10.0 mi ENE 9.2 mph - N/A   Clear
6:15 PM 71.6 °F 53.6 °F 53% 30.23 in 10.0 mi East 6.9 mph - N/A   Clear
6:35 PM 69.8 °F 53.6 °F 56% 30.23 in 10.0 mi ENE 8.1 mph - N/A   Clear
6:55 PM 69.8 °F 53.6 °F 56% 30.23 in 10.0 mi ENE 8.1 mph - N/A   Clear
7:15 PM 68.0 °F 53.6 °F 60% 30.23 in 10.0 mi NE 8.1 mph - N/A   Clear
7:35 PM 68.0 °F 53.6 °F 60% 30.23 in 10.0 mi ENE 10.4 mph - N/A   Clear
7:55 PM 66.2 °F 53.6 °F 64% 30.23 in 10.0 mi ENE 6.9 mph - N/A   Clear
8:15 PM 62.6 °F 53.6 °F 72% 30.23 in 10.0 mi ENE 4.6 mph - N/A   Clear
8:35 PM 60.8 °F 53.6 °F 77% 30.23 in 10.0 mi ENE 3.5 mph - N/A   Clear
8:55 PM 59.0 °F 53.6 °F 82% 30.23 in 10.0 mi ENE 5.8 mph - N/A   Clear
9:15 PM 59.0 °F 53.6 °F 82% 30.23 in 10.0 mi ENE 4.6 mph - N/A   Clear
9:35 PM 57.2 °F 51.8 °F 82% 30.24 in 10.0 mi ENE 4.6 mph - N/A   Clear
9:55 PM 59.0 °F 51.8 °F 77% 30.24 in 10.0 mi ENE 6.9 mph - N/A   Clear
10:15 PM 57.2 °F 51.8 °F 82% 30.25 in 10.0 mi ENE 5.8 mph - N/A   Clear
10:35 PM 55.4 °F 51.8 °F 88% 30.25 in 10.0 mi ENE 4.6 mph - N/A   Clear
10:55 PM 55.4 °F 51.8 °F 88% 30.25 in 10.0 mi ENE 5.8 mph - N/A   Clear
11:15 PM 55.4 °F 51.8 °F 88% 30.24 in 10.0 mi ENE 4.6 mph - N/A   Clear
11:35 PM 55.4 °F 51.8 °F 88% 30.25 in 10.0 mi Calm Calm - N/A   Clear
11:55 PM 55.4 °F 51.8 °F 88% 30.25 in 10.0 mi Calm Calm - N/A   Clear